디시인사이드 갤러리

갤러리 이슈박스, 최근방문 갤러리

갤러리 본문 영역

앱에서 작성

ㅇㅇ(211.34) 2020.01.25 01:20:38
조회 18 추천 0 댓글 0
							

추천 비추천

0

고정닉 0

0

원본 첨부파일 1

댓글 영역

전체 리플 0
등록순정렬 기준선택

하단 갤러리 리스트 영역

왼쪽 컨텐츠 영역

갤러리 리스트 영역

갤러리 리스트
번호 제목 글쓴이 작성일 조회 추천
공지 ■■■ 슬기로운 덕질 생활 가이드-아미 편 ■■■ [163] *-*갤로그로 이동합니다. 18.05.31 164514 813
공지 ■■■■■ 방갤 어그로 공지(유입필독) ■■■■■ [112] (*⁰▿⁰*)갤로그로 이동합니다. 17.07.14 40352 353
공지 ★★★★DC 방탄소년단 갤러리 단어장★★★★ [66] (*⁰▿⁰*)갤로그로 이동합니다. 17.08.04 43203 135
공지 ▼▼▼▼ 타갤에 스밍총공 가는 법 / 설리다는 이유 등 ▼▼▼▼ [117] 방갤gay남갤로그로 이동합니다. 17.01.18 37231 333
공지 ■■■■■■■■■ 방탄소년단 갤러리 가이드 ■■■■■■■■■ [532] DC방탄갤갤로그로 이동합니다. 16.01.08 787692 315
공지 ★★★★DC방탄소년단갤러리 단어장★★★★ [104/1] 기뉴(39.7) 13.10.17 133231 253
공지 방탄소년단 관련 내용이 있어야 합니다. [600] 운영자 13.07.02 71705 100
3818889 좆세먼지에 좆로나에 ㅇㅇ갤로그로 이동합니다. 14:28 16 0
3818888 벌레에서 다운 받은 과질 용량 좀 봐바 [5] ㅇㅇ갤로그로 이동합니다. 14:28 51 0
3818887 대한민국 2위 ㅇㅇ(221.139) 14:28 44 0
3818886 않이 ㅅㅂ [2] ㅇㅇ(203.226) 14:27 30 0
3818885 아 오끄로 한셋살까 [2] ㅇㅇ갤로그로 이동합니다. 14:25 36 0
3818884 바람많이 분다니까 모자3개 드립 생각남 ㅇㅇ갤로그로 이동합니다. 14:24 20 0
3818883 단체포카 가져와ㅏㅏㅏㅏㅏㅏ [2] ㅇㅇ갤로그로 이동합니다. 14:20 57 0
3818882 필터 반복재생하고싶음 시소겜갤로그로 이동합니다. 14:18 48 1
3818881 반고공앱은 [1] ㅇㅇ갤로그로 이동합니다. 14:17 33 0
3818880 윾도니도 두장 나옴 [6] ㅇㅇ(203.226) 14:16 132 0
3818879 알밤 사러 오끄갈건데 갓라 핫트 [3] ㅇㅇ갤로그로 이동합니다. 14:14 98 0
3818878 ㅅㅂㅅㅂㅅㅂㅅㅂㅅㅂㅅㅂ단체두장나옴 [15] ㅇㅇ갤로그로 이동합니다. 14:14 1079 0
3818877 ✖✖✖노검방 병신글 멋조공 금지 ㅂㅁㄱ✖✖✖ ㅇㅇ갤로그로 이동합니다. 14:14 11 0
3818876 방탄소년단 'ON' Kinetic Manifesto Film 촬영지 [1] ㅇㅇ(121.180) 14:13 177 1
3818875 읍바 신고글 썰어 ㅇㅇ(175.223) 14:12 14 0
3818874 와 ㅅㅂ 바람먼데 [5] 시소겜갤로그로 이동합니다. 14:12 96 0
3818873 인생이 얼마나ㅆㅎㅌㅊ면 [1] ㅇㅇ(175.223) 14:12 47 0
3818872 병신글뜨면 먹금하고 바로바로 신고눌러주셈 [5] ㅇㅇ(122.34) 14:11 47 0
3818871 방구석평론가 느그메모장에나쓰세요 ㅇㅇ갤로그로 이동합니다. 14:11 29 0
3818870 김태형 미친놈 ㅇㅇ(121.129) 14:11 146 0
3818869 이번 앨범 굉장히 난해한 느낌들던데, 라이브나오면 또 다르려나? ㅇㅇ(58.143) 14:09 47 2
3818868 외신 평론 ㅇㅇ(112.151) 14:07 195 8
3818867 갤주랑 갤주작업물가지고 까는것만 아니면 [2] notnotNo!갤로그로 이동합니다. 14:07 159 0
3818866 bts 이번 타이틀곡은 on 임? 블랙스완 아니고? ㅇㅇ(203.130) 14:06 29 0
3818865 별 ㅂㅅ들 다 기어쳐들어오너 [1] ㅇㅇ(175.112) 14:06 31 0
3818864 온둥 38밖에 안되네 [5] ㅇㅇ갤로그로 이동합니다. 14:04 124 0
3818863 구미에도 '코로나19' 확진자 발생..삼성전자 직원 ㅇㅇ(221.139) 14:04 58 0
3818862 옥수수차 마싯따 ㅇㅇ갤로그로 이동합니다. 14:03 15 0
3818859 대구에 바이러스 퍼트린건 짱깨다 ㅡ 31번은 2차 감염자 [1] ㅇㅇ(1.244) 14:01 85 5
3818858 반고 식량 사러감 [4] 여7ㅣ찌갤로그로 이동합니다. 14:01 114 0
3818857 ❌❌❌ 알겠으니까 꺼져 ❌❌❌ 시소겜갤로그로 이동합니다. 14:00 13 0
3818855 서울 구로구 개봉동에도 확진자 ㅇㅇ(221.139) 13:58 49 0
3818854 알밤왔다 볼련볼 [6] ㅇㅇ갤로그로 이동합니다. 13:57 155 0
3818853 요새 몇몇새기들한테 멋달아주면서 느낀건데 [5] notnotNo!갤로그로 이동합니다. 13:56 123 0
3818852 그러고보니 에~오 이거 프레디머큐리 따라했네.. ㅇㅇ(218.39) 13:56 46 0
3818851 ✖✖✖병신글 비교글 멋조공 금지 ㅂㅁㄱ✖✖✖ [1] ㅇㅇ갤로그로 이동합니다. 13:55 15 0
3818850 아파트 방화범 붙잡고 보니 38도 고열..코로나19 검사 의뢰 ㅇㅇ(221.139) 13:54 95 0
3818849 아 ㅅㅂ ㅋㅋㅋㅋㅋㅋㅋㅋㅋ 웃창 [11] notnotNo!갤로그로 이동합니다. 13:52 279 3
3818848 ON 뮤직비디오보면 금발 백인 없는데 왜 그런거냐? [1] ㅇㅇ(223.39) 13:52 108 0
3818847 [서태지갤] 컴백 축하드립니다 스밍인증 놓고 갑니다^^ [7] ㅇㅇ(223.38) 13:48 74 0
3818846 이제 쩔어 불타 작것시 같은 노래 안나오나... [4] ㅇㅇ(106.102) 13:48 136 0
3818845 눈 3초컷인데 notnotNo!갤로그로 이동합니다. 13:47 62 0
3818844 아이튠즈 개년 올린 반고 입갤하면 ㅇㅇ(175.112) 13:47 60 0
갤러리 내부 검색
전체게시물 정렬 옵션

오른쪽 컨텐츠 영역

개념글 []

/

    이슈줌NEW

    1/6

    뉴스NEW

    1/3

    힛(HIT)NEW

    그때 그 힛

    1/3

    초개념